Year,Month,Day,Hour,Minute,Value (Times are PST for windspeed in km/hr)
2007,03,11,00,00,6.60
2007,03,11,00,01,4.90
2007,03,11,00,02,4.80
2007,03,11,00,03,4.30
2007,03,11,00,04,5.40
2007,03,11,00,05,4.80
2007,03,11,00,06,6.00
2007,03,11,00,07,6.60
2007,03,11,00,08,7.00
2007,03,11,00,09,5.90
2007,03,11,00,10,3.00
2007,03,11,00,11,6.70
2007,03,11,00,12,6.00
2007,03,11,00,13,3.80
2007,03,11,00,14,2.50
2007,03,11,00,15,1.80
2007,03,11,00,16,3.10
2007,03,11,00,17,4.50
2007,03,11,00,18,3.20
2007,03,11,00,19,3.50
2007,03,11,00,20,1.00
2007,03,11,00,21,2.20
2007,03,11,00,22,2.80
2007,03,11,00,23,2.90
2007,03,11,00,24,3.60
2007,03,11,00,25,2.80
2007,03,11,00,26,2.00
2007,03,11,00,27,2.70
2007,03,11,00,28,3.80
2007,03,11,00,29,3.50
2007,03,11,00,30,3.20
2007,03,11,00,31,2.90
2007,03,11,00,32,2.50
2007,03,11,00,33,1.90
2007,03,11,00,34,2.00
2007,03,11,00,35,1.40
2007,03,11,00,36,0.80
2007,03,11,00,37,2.10
2007,03,11,00,38,1.20
2007,03,11,00,39,1.60
2007,03,11,00,40,1.90
2007,03,11,00,41,2.90
2007,03,11,00,42,1.90
2007,03,11,00,43,1.20
2007,03,11,00,44,1.00
2007,03,11,00,45,1.40
2007,03,11,00,46,0.00
2007,03,11,00,47,1.60
2007,03,11,00,48,2.00
2007,03,11,00,49,1.40
2007,03,11,00,50,1.60
2007,03,11,00,51,1.40
2007,03,11,00,52,2.90
2007,03,11,00,53,2.40
2007,03,11,00,54,2.50
2007,03,11,00,55,2.30
2007,03,11,00,56,3.20
2007,03,11,00,57,3.20
2007,03,11,00,58,3.00
2007,03,11,00,59,0.90
2007,03,11,01,00,1.90
2007,03,11,01,01,2.20
2007,03,11,01,02,3.30
2007,03,11,01,03,0.90
2007,03,11,01,04,1.60
2007,03,11,01,05,3.10
2007,03,11,01,06,3.60
2007,03,11,01,07,2.70
2007,03,11,01,08,1.60
2007,03,11,01,09,0.20
2007,03,11,01,10,0.20
2007,03,11,01,11,0.70
2007,03,11,01,12,0.40
2007,03,11,01,13,0.40
2007,03,11,01,14,0.20
2007,03,11,01,15,2.70
2007,03,11,01,16,2.60
2007,03,11,01,17,1.90
2007,03,11,01,18,2.80
2007,03,11,01,19,1.20
2007,03,11,01,20,0.80
2007,03,11,01,21,1.40
2007,03,11,01,22,0.60
2007,03,11,01,23,0.00
2007,03,11,01,24,0.60
2007,03,11,01,25,1.70
2007,03,11,01,26,0.30
2007,03,11,01,27,0.30
2007,03,11,01,28,0.00
2007,03,11,01,29,0.30
2007,03,11,01,30,0.30
2007,03,11,01,31,0.00
2007,03,11,01,32,0.40
2007,03,11,01,33,1.40
2007,03,11,01,34,1.00
2007,03,11,01,35,0.40
2007,03,11,01,36,0.90
2007,03,11,01,37,1.50
2007,03,11,01,38,2.60
2007,03,11,01,39,2.70
2007,03,11,01,40,2.90
2007,03,11,01,41,2.00
2007,03,11,01,42,0.00
2007,03,11,01,43,0.10
2007,03,11,01,44,0.00
2007,03,11,01,45,2.00
2007,03,11,01,46,1.80
2007,03,11,01,47,1.10
2007,03,11,01,48,2.00
2007,03,11,01,49,1.60
2007,03,11,01,50,0.30
2007,03,11,01,51,0.00
2007,03,11,01,52,0.00
2007,03,11,01,53,0.00
2007,03,11,01,54,0.00
2007,03,11,01,55,0.00
2007,03,11,01,56,0.40
2007,03,11,01,57,1.40
2007,03,11,01,58,0.90
2007,03,11,01,59,0.00
2007,03,11,03,00,0.60
2007,03,11,03,01,1.40
2007,03,11,03,02,2.70
2007,03,11,03,03,3.00
2007,03,11,03,04,4.30
2007,03,11,03,05,4.00
2007,03,11,03,06,4.30
2007,03,11,03,07,2.60
2007,03,11,03,08,3.40
2007,03,11,03,09,3.00
2007,03,11,03,10,3.50
2007,03,11,03,11,4.10
2007,03,11,03,12,3.40
2007,03,11,03,13,3.50
2007,03,11,03,14,4.70
2007,03,11,03,15,5.00
2007,03,11,03,16,3.50
2007,03,11,03,17,3.60
2007,03,11,03,18,5.20
2007,03,11,03,19,6.00
2007,03,11,03,20,4.70
2007,03,11,03,21,3.50
2007,03,11,03,22,3.50
2007,03,11,03,23,5.30
2007,03,11,03,24,6.40
2007,03,11,03,25,5.10
2007,03,11,03,26,2.60
2007,03,11,03,27,1.80
2007,03,11,03,28,3.80
2007,03,11,03,29,5.60
2007,03,11,03,30,5.70
2007,03,11,03,31,6.00
2007,03,11,03,32,3.90
2007,03,11,03,33,1.20
2007,03,11,03,34,2.60
2007,03,11,03,35,1.70
2007,03,11,03,36,0.10
2007,03,11,03,37,0.10
2007,03,11,03,38,1.70
2007,03,11,03,39,2.80
2007,03,11,03,40,2.30
2007,03,11,03,41,2.00
2007,03,11,03,42,1.80
2007,03,11,03,43,1.00
2007,03,11,03,44,0.00
2007,03,11,03,45,0.10
2007,03,11,03,46,0.10
2007,03,11,03,47,1.30
2007,03,11,03,48,0.40
2007,03,11,03,49,2.10
2007,03,11,03,50,1.50
2007,03,11,03,51,0.80
2007,03,11,03,52,0.30
2007,03,11,03,53,2.80
2007,03,11,03,54,2.70
2007,03,11,03,55,3.20
2007,03,11,03,56,2.40
2007,03,11,03,57,1.70
2007,03,11,03,58,1.50
2007,03,11,03,59,2.10
2007,03,11,04,00,2.20
2007,03,11,04,01,2.20
2007,03,11,04,02,1.90
2007,03,11,04,03,2.10
2007,03,11,04,04,3.50
2007,03,11,04,05,2.60
2007,03,11,04,06,2.60
2007,03,11,04,07,3.50
2007,03,11,04,08,2.90
2007,03,11,04,09,1.50
2007,03,11,04,10,0.80
2007,03,11,04,11,0.80
2007,03,11,04,12,0.00
2007,03,11,04,13,1.30
2007,03,11,04,14,1.30
2007,03,11,04,15,2.40
2007,03,11,04,16,3.20
2007,03,11,04,17,0.20
2007,03,11,04,18,0.50
2007,03,11,04,19,0.90
2007,03,11,04,20,0.00
2007,03,11,04,21,0.30
2007,03,11,04,22,0.20
2007,03,11,04,23,0.00
2007,03,11,04,24,0.20
2007,03,11,04,25,0.70
2007,03,11,04,26,0.20
2007,03,11,04,27,0.10
2007,03,11,04,28,0.00
2007,03,11,04,29,0.00
2007,03,11,04,30,0.20
2007,03,11,04,31,1.90
2007,03,11,04,32,0.60
2007,03,11,04,33,0.40
2007,03,11,04,34,1.50
2007,03,11,04,35,1.10
2007,03,11,04,36,3.40
2007,03,11,04,37,4.10
2007,03,11,04,38,4.20
2007,03,11,04,39,2.50
2007,03,11,04,40,1.20
2007,03,11,04,41,0.20
2007,03,11,04,42,1.00
2007,03,11,04,43,1.00
2007,03,11,04,44,0.50
2007,03,11,04,45,0.10
2007,03,11,04,46,0.30
2007,03,11,04,47,0.00
2007,03,11,04,48,0.00
2007,03,11,04,49,0.00
2007,03,11,04,50,0.00
2007,03,11,04,51,0.40
2007,03,11,04,52,0.00
2007,03,11,04,53,0.00
2007,03,11,04,54,0.00
2007,03,11,04,55,0.00
2007,03,11,04,56,0.00
2007,03,11,04,57,0.00
2007,03,11,04,58,0.30
2007,03,11,04,59,1.50
2007,03,11,05,00,0.40
2007,03,11,05,01,0.00
2007,03,11,05,02,0.00
2007,03,11,05,03,2.10
2007,03,11,05,04,1.90
2007,03,11,05,05,0.70
2007,03,11,05,06,0.40
2007,03,11,05,07,2.20
2007,03,11,05,08,4.70
2007,03,11,05,09,3.30
2007,03,11,05,10,0.80
2007,03,11,05,11,1.20
2007,03,11,05,12,3.70
2007,03,11,05,13,4.40
2007,03,11,05,14,2.10
2007,03,11,05,15,0.20
2007,03,11,05,16,2.90
2007,03,11,05,17,2.30
2007,03,11,05,18,4.30
2007,03,11,05,19,5.00
2007,03,11,05,20,5.60
2007,03,11,05,21,2.80
2007,03,11,05,22,0.80
2007,03,11,05,23,0.00
2007,03,11,05,24,0.00
2007,03,11,05,25,0.00
2007,03,11,05,26,0.00
2007,03,11,05,27,0.00
2007,03,11,05,28,1.40
2007,03,11,05,29,2.00
2007,03,11,05,30,2.90
2007,03,11,05,31,2.60
2007,03,11,05,32,1.90
2007,03,11,05,33,1.50
2007,03,11,05,34,0.20
2007,03,11,05,35,1.80
2007,03,11,05,36,3.50
2007,03,11,05,37,2.00
2007,03,11,05,38,2.20
2007,03,11,05,39,0.40
2007,03,11,05,40,1.50
2007,03,11,05,41,2.70
2007,03,11,05,42,4.40
2007,03,11,05,43,3.70
2007,03,11,05,44,2.70
2007,03,11,05,45,4.10
2007,03,11,05,46,3.50
2007,03,11,05,47,3.70
2007,03,11,05,48,3.00
2007,03,11,05,49,2.60
2007,03,11,05,50,2.60
2007,03,11,05,51,0.30
2007,03,11,05,52,0.50
2007,03,11,05,53,2.80
2007,03,11,05,54,4.60
2007,03,11,05,55,4.00
2007,03,11,05,56,3.10
2007,03,11,05,57,0.70
2007,03,11,05,58,0.10
2007,03,11,05,59,0.10
2007,03,11,06,00,0.00
2007,03,11,06,01,0.00
2007,03,11,06,02,0.50
2007,03,11,06,03,1.60
2007,03,11,06,04,0.60
2007,03,11,06,05,0.20
2007,03,11,06,06,0.50
2007,03,11,06,07,0.00
2007,03,11,06,08,0.00
2007,03,11,06,09,0.00
2007,03,11,06,10,0.00
2007,03,11,06,11,0.20
2007,03,11,06,12,0.10
2007,03,11,06,13,0.00
2007,03,11,06,14,0.00
2007,03,11,06,15,1.00
2007,03,11,06,16,0.70
2007,03,11,06,17,0.00
2007,03,11,06,18,0.00
2007,03,11,06,19,0.20
2007,03,11,06,20,2.60
2007,03,11,06,21,1.90
2007,03,11,06,22,2.90
2007,03,11,06,23,2.90
2007,03,11,06,24,2.60
2007,03,11,06,25,2.60
2007,03,11,06,26,2.30
2007,03,11,06,27,0.30
2007,03,11,06,28,0.80
2007,03,11,06,29,0.90
2007,03,11,06,30,1.50
2007,03,11,06,31,1.10
2007,03,11,06,32,1.00
2007,03,11,06,33,0.10
2007,03,11,06,34,0.00
2007,03,11,06,35,1.10
2007,03,11,06,36,2.50
2007,03,11,06,37,1.00
2007,03,11,06,38,0.00
2007,03,11,06,39,0.00
2007,03,11,06,40,0.00
2007,03,11,06,41,0.00
2007,03,11,06,42,0.00
2007,03,11,06,43,0.00
2007,03,11,06,44,0.00
2007,03,11,06,45,0.00
2007,03,11,06,46,0.00
2007,03,11,06,47,0.00
2007,03,11,06,48,0.00
2007,03,11,06,49,0.00
2007,03,11,06,50,0.00
2007,03,11,06,51,0.00
2007,03,11,06,52,0.00
2007,03,11,06,53,0.30
2007,03,11,06,54,3.20
2007,03,11,06,55,3.50
2007,03,11,06,56,3.00
2007,03,11,06,57,1.50
2007,03,11,06,58,0.00
2007,03,11,06,59,0.00
2007,03,11,07,00,0.00
2007,03,11,07,01,0.00
2007,03,11,07,02,0.00
2007,03,11,07,03,0.00
2007,03,11,07,04,1.80
2007,03,11,07,05,1.90
2007,03,11,07,06,0.00
2007,03,11,07,07,0.00
2007,03,11,07,08,0.00
2007,03,11,07,09,0.00
2007,03,11,07,10,0.00
2007,03,11,07,11,0.00
2007,03,11,07,12,0.00
2007,03,11,07,13,0.60
2007,03,11,07,14,0.20
2007,03,11,07,15,0.00
2007,03,11,07,16,0.00
2007,03,11,07,17,0.00
2007,03,11,07,18,0.00
2007,03,11,07,19,0.10
2007,03,11,07,20,0.00
2007,03,11,07,21,1.40
2007,03,11,07,22,0.50
2007,03,11,07,23,0.00
2007,03,11,07,24,0.00
2007,03,11,07,25,0.00
2007,03,11,07,26,0.00
2007,03,11,07,27,0.00
2007,03,11,07,28,0.00
2007,03,11,07,29,0.00
2007,03,11,07,30,0.00
2007,03,11,07,31,0.00
2007,03,11,07,32,0.00
2007,03,11,07,33,0.00
2007,03,11,07,34,0.00
2007,03,11,07,35,0.00
2007,03,11,07,36,0.00
2007,03,11,07,37,0.00
2007,03,11,07,38,0.30
2007,03,11,07,39,0.00
2007,03,11,07,40,0.00
2007,03,11,07,41,0.00
2007,03,11,07,42,0.60
2007,03,11,07,43,2.00
2007,03,11,07,44,0.00
2007,03,11,07,45,0.30
2007,03,11,07,46,0.20
2007,03,11,07,47,0.10
2007,03,11,07,48,0.00
2007,03,11,07,49,0.00
2007,03,11,07,50,0.00
2007,03,11,07,51,0.00
2007,03,11,07,52,0.00
2007,03,11,07,53,0.00
2007,03,11,07,54,0.00
2007,03,11,07,55,0.00
2007,03,11,07,56,0.10
2007,03,11,07,57,0.00
2007,03,11,07,58,0.00
2007,03,11,07,59,0.10
2007,03,11,08,00,1.10
2007,03,11,08,01,0.60
2007,03,11,08,02,0.20
2007,03,11,08,03,0.00
2007,03,11,08,04,0.00
2007,03,11,08,05,0.00
2007,03,11,08,06,0.00
2007,03,11,08,07,0.00
2007,03,11,08,08,0.00
2007,03,11,08,09,0.00
2007,03,11,08,10,0.00
2007,03,11,08,11,0.00
2007,03,11,08,12,0.10
2007,03,11,08,13,0.00
2007,03,11,08,14,0.10
2007,03,11,08,15,0.00
2007,03,11,08,16,0.00
2007,03,11,08,17,0.00
2007,03,11,08,18,0.00
2007,03,11,08,19,0.00
2007,03,11,08,20,0.00
2007,03,11,08,21,0.00
2007,03,11,08,22,0.00
2007,03,11,08,23,0.00
2007,03,11,08,24,0.00
2007,03,11,08,25,0.00
2007,03,11,08,26,0.00
2007,03,11,08,27,0.00
2007,03,11,08,28,0.00
2007,03,11,08,29,0.00
2007,03,11,08,30,0.00
2007,03,11,08,31,0.30
2007,03,11,08,32,0.00
2007,03,11,08,33,0.10
2007,03,11,08,34,0.10
2007,03,11,08,35,0.00
2007,03,11,08,36,2.60
2007,03,11,08,37,0.00
2007,03,11,08,38,0.00
2007,03,11,08,39,0.00
2007,03,11,08,40,0.00
2007,03,11,08,41,0.00
2007,03,11,08,42,0.00
2007,03,11,08,43,0.00
2007,03,11,08,44,0.00
2007,03,11,08,45,0.00
2007,03,11,08,46,0.00
2007,03,11,08,47,0.20
2007,03,11,08,48,0.00
2007,03,11,08,49,0.00
2007,03,11,08,50,0.70
2007,03,11,08,51,0.00
2007,03,11,08,52,0.00
2007,03,11,08,53,0.00
2007,03,11,08,54,0.00
2007,03,11,08,55,0.70
2007,03,11,08,56,2.20
2007,03,11,08,57,0.20
2007,03,11,08,58,0.20
2007,03,11,08,59,0.00
2007,03,11,09,00,0.40
2007,03,11,09,01,1.50
2007,03,11,09,02,0.60
2007,03,11,09,03,0.20
2007,03,11,09,04,0.10
2007,03,11,09,05,0.00
2007,03,11,09,06,0.40
2007,03,11,09,07,0.40
2007,03,11,09,08,0.00
2007,03,11,09,09,0.10
2007,03,11,09,10,0.00
2007,03,11,09,11,0.00
2007,03,11,09,12,0.00
2007,03,11,09,13,0.00
2007,03,11,09,14,0.10
2007,03,11,09,15,0.90
2007,03,11,09,16,0.00
2007,03,11,09,17,0.00
2007,03,11,09,18,0.20
2007,03,11,09,19,0.40
2007,03,11,09,20,0.10
2007,03,11,09,21,0.00
2007,03,11,09,22,2.40
2007,03,11,09,23,1.10
2007,03,11,09,24,0.80
2007,03,11,09,25,2.10
2007,03,11,09,26,3.60
2007,03,11,09,27,2.10
2007,03,11,09,28,0.30
2007,03,11,09,29,0.00
2007,03,11,09,30,0.00
2007,03,11,09,31,0.00
2007,03,11,09,32,0.20
2007,03,11,09,33,0.00
2007,03,11,09,34,0.00
2007,03,11,09,35,0.00
2007,03,11,09,36,0.00
2007,03,11,09,37,0.00
2007,03,11,09,38,1.20
2007,03,11,09,39,1.60
2007,03,11,09,40,0.00
2007,03,11,09,41,0.00
2007,03,11,09,42,0.00
2007,03,11,09,43,0.00
2007,03,11,09,44,0.00
2007,03,11,09,45,0.00
2007,03,11,09,46,0.20
2007,03,11,09,47,0.10
2007,03,11,09,48,0.00
2007,03,11,09,49,0.10
2007,03,11,09,50,0.00
2007,03,11,09,51,0.00
2007,03,11,09,52,0.00
2007,03,11,09,53,0.00
2007,03,11,09,54,0.00
2007,03,11,09,55,0.00
2007,03,11,09,56,1.80
2007,03,11,09,57,1.20
2007,03,11,09,58,0.00
2007,03,11,09,59,0.00
2007,03,11,10,00,0.00
2007,03,11,10,01,0.00
2007,03,11,10,02,0.00
2007,03,11,10,03,0.00
2007,03,11,10,04,0.10
2007,03,11,10,05,0.90
2007,03,11,10,06,0.00
2007,03,11,10,07,0.10
2007,03,11,10,08,0.60
2007,03,11,10,09,1.50
2007,03,11,10,10,0.60
2007,03,11,10,11,0.00
2007,03,11,10,12,0.00
2007,03,11,10,13,0.30
2007,03,11,10,14,3.00
2007,03,11,10,15,1.10
2007,03,11,10,16,0.00
2007,03,11,10,17,0.60
2007,03,11,10,18,0.70
2007,03,11,10,19,0.00
2007,03,11,10,20,0.00
2007,03,11,10,21,0.00
2007,03,11,10,22,0.00
2007,03,11,10,23,0.00
2007,03,11,10,24,0.00
2007,03,11,10,25,0.00
2007,03,11,10,26,0.00
2007,03,11,10,27,0.00
2007,03,11,10,28,0.10
2007,03,11,10,29,1.40
2007,03,11,10,30,0.20
2007,03,11,10,31,0.70
2007,03,11,10,32,0.00
2007,03,11,10,33,1.30
2007,03,11,10,34,0.40
2007,03,11,10,35,0.00
2007,03,11,10,36,0.10
2007,03,11,10,37,0.20
2007,03,11,10,38,0.00
2007,03,11,10,39,0.00
2007,03,11,10,40,0.00
2007,03,11,10,41,0.00
2007,03,11,10,42,0.00
2007,03,11,10,43,0.00
2007,03,11,10,44,0.00
2007,03,11,10,45,0.10
2007,03,11,10,46,0.20
2007,03,11,10,47,0.70
2007,03,11,10,48,0.00
2007,03,11,10,49,0.00
2007,03,11,10,50,0.00
2007,03,11,10,51,0.00
2007,03,11,10,52,0.00
2007,03,11,10,53,0.00
2007,03,11,10,54,0.10
2007,03,11,10,55,0.10
2007,03,11,10,56,0.00
2007,03,11,10,57,0.70
2007,03,11,10,58,0.30
2007,03,11,10,59,0.10
2007,03,11,11,00,0.00
2007,03,11,11,01,0.00
2007,03,11,11,02,0.10
2007,03,11,11,03,0.30
2007,03,11,11,04,0.00
2007,03,11,11,05,0.00
2007,03,11,11,06,0.00
2007,03,11,11,07,0.00
2007,03,11,11,08,0.00
2007,03,11,11,09,0.00
2007,03,11,11,10,0.00
2007,03,11,11,11,0.00
2007,03,11,11,12,0.00
2007,03,11,11,13,0.00
2007,03,11,11,14,0.00
2007,03,11,11,15,0.00
2007,03,11,11,16,0.20
2007,03,11,11,17,0.60
2007,03,11,11,18,0.00
2007,03,11,11,19,0.00
2007,03,11,11,20,0.00
2007,03,11,11,21,0.00
2007,03,11,11,22,0.90
2007,03,11,11,23,0.00
2007,03,11,11,24,0.00
2007,03,11,11,25,0.00
2007,03,11,11,26,0.10
2007,03,11,11,27,0.00
2007,03,11,11,28,0.00
2007,03,11,11,29,0.30
2007,03,11,11,30,2.70
2007,03,11,11,31,1.40
2007,03,11,11,32,0.00
2007,03,11,11,33,0.00
2007,03,11,11,34,0.00
2007,03,11,11,35,0.10
2007,03,11,11,36,0.40
2007,03,11,11,37,0.00
2007,03,11,11,38,0.00
2007,03,11,11,39,0.00
2007,03,11,11,40,0.00
2007,03,11,11,41,0.00
2007,03,11,11,42,1.60
2007,03,11,11,43,0.20
2007,03,11,11,44,0.10
2007,03,11,11,45,0.70
2007,03,11,11,46,3.50
2007,03,11,11,47,1.90
2007,03,11,11,48,1.60
2007,03,11,11,49,1.10
2007,03,11,11,50,0.10
2007,03,11,11,51,0.00
2007,03,11,11,52,0.00
2007,03,11,11,53,0.80
2007,03,11,11,54,0.00
2007,03,11,11,55,3.10
2007,03,11,11,56,0.90
2007,03,11,11,57,0.00
2007,03,11,11,58,0.10
2007,03,11,11,59,0.20
2007,03,11,12,00,1.50
2007,03,11,12,01,2.50
2007,03,11,12,02,4.30
2007,03,11,12,03,2.40
2007,03,11,12,04,2.20
2007,03,11,12,05,1.40
2007,03,11,12,06,0.20
2007,03,11,12,07,0.90
2007,03,11,12,08,1.20
2007,03,11,12,09,2.10
2007,03,11,12,10,0.20
2007,03,11,12,11,0.80
2007,03,11,12,12,0.20
2007,03,11,12,13,0.60
2007,03,11,12,14,0.70
2007,03,11,12,15,0.00
2007,03,11,12,16,0.20
2007,03,11,12,17,0.00
2007,03,11,12,18,0.00
2007,03,11,12,19,0.60
2007,03,11,12,20,0.00
2007,03,11,12,21,0.30
2007,03,11,12,22,0.60
2007,03,11,12,23,0.60
2007,03,11,12,24,0.30
2007,03,11,12,25,0.00
2007,03,11,12,26,0.20
2007,03,11,12,27,0.00
2007,03,11,12,28,2.20
2007,03,11,12,29,2.40
2007,03,11,12,30,1.50
2007,03,11,12,31,0.60
2007,03,11,12,32,0.00
2007,03,11,12,33,1.30
2007,03,11,12,34,3.60
2007,03,11,12,35,3.20
2007,03,11,12,36,2.00
2007,03,11,12,37,1.60
2007,03,11,12,38,1.90
2007,03,11,12,39,3.40
2007,03,11,12,40,3.00
2007,03,11,12,41,1.10
2007,03,11,12,42,0.90
2007,03,11,12,43,0.30
2007,03,11,12,44,1.90
2007,03,11,12,45,1.00
2007,03,11,12,46,0.00
2007,03,11,12,47,0.10
2007,03,11,12,48,1.40
2007,03,11,12,49,0.00
2007,03,11,12,50,0.10
2007,03,11,12,51,0.60
2007,03,11,12,52,0.00
2007,03,11,12,53,1.40
2007,03,11,12,54,1.70
2007,03,11,12,55,1.40
2007,03,11,12,56,0.10
2007,03,11,12,57,0.70
2007,03,11,12,58,1.40
2007,03,11,12,59,0.90
2007,03,11,13,00,0.00
2007,03,11,13,01,0.90
2007,03,11,13,02,2.80
2007,03,11,13,03,1.60
2007,03,11,13,04,2.50
2007,03,11,13,05,1.00
2007,03,11,13,06,1.60
2007,03,11,13,07,3.10
2007,03,11,13,08,0.90
2007,03,11,13,09,0.60
2007,03,11,13,10,0.00
2007,03,11,13,11,0.10
2007,03,11,13,12,0.00
2007,03,11,13,13,0.00
2007,03,11,13,14,0.90
2007,03,11,13,15,2.00
2007,03,11,13,16,1.10
2007,03,11,13,17,1.40
2007,03,11,13,18,3.90
2007,03,11,13,19,2.60
2007,03,11,13,20,1.80
2007,03,11,13,21,3.40
2007,03,11,13,22,1.30
2007,03,11,13,23,0.30
2007,03,11,13,24,2.10
2007,03,11,13,25,2.20
2007,03,11,13,26,3.60
2007,03,11,13,27,1.20
2007,03,11,13,28,2.50
2007,03,11,13,29,0.20
2007,03,11,13,30,0.20
2007,03,11,13,31,0.00
2007,03,11,13,32,0.00
2007,03,11,13,33,0.00
2007,03,11,13,34,1.10
2007,03,11,13,35,0.40
2007,03,11,13,36,1.00
2007,03,11,13,37,0.10
2007,03,11,13,38,0.00
2007,03,11,13,39,0.90
2007,03,11,13,40,1.30
2007,03,11,13,41,0.50
2007,03,11,13,42,1.60
2007,03,11,13,43,0.60
2007,03,11,13,44,1.80
2007,03,11,13,45,0.00
2007,03,11,13,46,0.00
2007,03,11,13,47,0.10
2007,03,11,13,48,0.20
2007,03,11,13,49,0.10
2007,03,11,13,50,0.30
2007,03,11,13,51,0.10
2007,03,11,13,52,3.10
2007,03,11,13,53,1.70
2007,03,11,13,54,0.00
2007,03,11,13,55,0.00
2007,03,11,13,56,0.00
2007,03,11,13,57,0.70
2007,03,11,13,58,0.30
2007,03,11,13,59,0.10
2007,03,11,14,00,0.70
2007,03,11,14,01,1.20
2007,03,11,14,02,0.00
2007,03,11,14,03,0.10
2007,03,11,14,04,0.00
2007,03,11,14,05,0.60
2007,03,11,14,06,0.60
2007,03,11,14,07,0.30
2007,03,11,14,08,0.60
2007,03,11,14,09,2.50
2007,03,11,14,10,1.50
2007,03,11,14,11,2.90
2007,03,11,14,12,4.60
2007,03,11,14,13,4.80
2007,03,11,14,14,5.10
2007,03,11,14,15,4.50
2007,03,11,14,16,5.50
2007,03,11,14,17,3.40
2007,03,11,14,18,4.40
2007,03,11,14,19,4.20
2007,03,11,14,20,4.90
2007,03,11,14,21,6.90
2007,03,11,14,22,7.40
2007,03,11,14,23,6.60
2007,03,11,14,24,1.80
2007,03,11,14,25,3.50
2007,03,11,14,26,11.20
2007,03,11,14,27,5.70
2007,03,11,14,28,3.20
2007,03,11,14,29,5.30
2007,03,11,14,30,10.80
2007,03,11,14,31,12.00
2007,03,11,14,32,8.80
2007,03,11,14,33,6.20
2007,03,11,14,34,6.20
2007,03,11,14,35,11.60
2007,03,11,14,36,3.80
2007,03,11,14,37,5.50
2007,03,11,14,38,6.10
2007,03,11,14,39,4.90
2007,03,11,14,40,4.20
2007,03,11,14,41,6.90
2007,03,11,14,42,2.70
2007,03,11,14,43,5.80
2007,03,11,14,44,8.90
2007,03,11,14,45,8.00
2007,03,11,14,46,4.40
2007,03,11,14,47,7.70
2007,03,11,14,48,7.60
2007,03,11,14,49,10.50
2007,03,11,14,50,5.20
2007,03,11,14,51,7.70
2007,03,11,14,52,9.70
2007,03,11,14,53,11.30
2007,03,11,14,54,6.40
2007,03,11,14,55,5.00
2007,03,11,14,56,4.60
2007,03,11,14,57,14.90
2007,03,11,14,58,8.40
2007,03,11,14,59,7.20
2007,03,11,15,00,15.00
2007,03,11,15,01,17.00
2007,03,11,15,02,13.00
2007,03,11,15,03,18.80
2007,03,11,15,04,9.00
2007,03,11,15,05,8.60
2007,03,11,15,06,9.30
2007,03,11,15,07,6.70
2007,03,11,15,08,7.60
2007,03,11,15,09,8.20
2007,03,11,15,10,18.30
2007,03,11,15,11,8.60
2007,03,11,15,12,7.80
2007,03,11,15,13,2.70
2007,03,11,15,14,3.90
2007,03,11,15,15,9.90
2007,03,11,15,16,8.90
2007,03,11,15,17,13.20
2007,03,11,15,18,14.20
2007,03,11,15,19,17.60
2007,03,11,15,20,11.30
2007,03,11,15,21,8.10
2007,03,11,15,22,8.90
2007,03,11,15,23,11.80
2007,03,11,15,24,13.90
2007,03,11,15,25,11.90
2007,03,11,15,26,10.70
2007,03,11,15,27,7.20
2007,03,11,15,28,6.10
2007,03,11,15,29,6.70
2007,03,11,15,30,14.00
2007,03,11,15,31,10.80
2007,03,11,15,32,5.10
2007,03,11,15,33,7.10
2007,03,11,15,34,5.30
2007,03,11,15,35,10.10
2007,03,11,15,36,10.50
2007,03,11,15,37,7.90
2007,03,11,15,38,9.30
2007,03,11,15,39,10.10
2007,03,11,15,40,8.80
2007,03,11,15,41,9.40
2007,03,11,15,42,13.80
2007,03,11,15,43,12.60
2007,03,11,15,44,11.10
2007,03,11,15,45,8.50
2007,03,11,15,46,9.80
2007,03,11,15,47,10.90
2007,03,11,15,48,11.00
2007,03,11,15,49,10.90
2007,03,11,15,50,9.70
2007,03,11,15,51,7.40
2007,03,11,15,52,10.50
2007,03,11,15,53,9.30
2007,03,11,15,54,9.40
2007,03,11,15,55,7.10
2007,03,11,15,56,3.20
2007,03,11,15,57,4.90
2007,03,11,15,58,6.40
2007,03,11,15,59,5.30
2007,03,11,16,00,8.30
2007,03,11,16,01,9.70
2007,03,11,16,02,10.20
2007,03,11,16,03,13.40
2007,03,11,16,04,10.90
2007,03,11,16,05,14.70
2007,03,11,16,06,12.10
2007,03,11,16,07,13.90
2007,03,11,16,08,9.80
2007,03,11,16,09,10.20
2007,03,11,16,10,13.30
2007,03,11,16,11,11.40
2007,03,11,16,12,5.70
2007,03,11,16,13,8.20
2007,03,11,16,14,5.30
2007,03,11,16,15,6.00
2007,03,11,16,16,7.90
2007,03,11,16,17,15.60
2007,03,11,16,18,11.70
2007,03,11,16,19,9.60
2007,03,11,16,20,18.90
2007,03,11,16,21,15.90
2007,03,11,16,22,10.40
2007,03,11,16,23,9.20
2007,03,11,16,24,13.00
2007,03,11,16,25,10.90
2007,03,11,16,26,15.50
2007,03,11,16,27,11.00
2007,03,11,16,28,9.70
2007,03,11,16,29,13.60
2007,03,11,16,30,5.40
2007,03,11,16,31,14.20
2007,03,11,16,32,14.90
2007,03,11,16,33,8.60
2007,03,11,16,34,9.60
2007,03,11,16,35,19.10
2007,03,11,16,36,14.60
2007,03,11,16,37,11.90
2007,03,11,16,38,15.40
2007,03,11,16,39,14.80
2007,03,11,16,40,11.80
2007,03,11,16,41,11.20
2007,03,11,16,42,8.00
2007,03,11,16,43,8.90
2007,03,11,16,44,19.40
2007,03,11,16,45,11.20
2007,03,11,16,46,12.60
2007,03,11,16,47,11.20
2007,03,11,16,48,11.00
2007,03,11,16,49,6.20
2007,03,11,16,50,16.80
2007,03,11,16,51,7.50
2007,03,11,16,52,6.10
2007,03,11,16,53,12.60
2007,03,11,16,54,11.40
2007,03,11,16,55,7.90
2007,03,11,16,56,13.00
2007,03,11,16,57,11.40
2007,03,11,16,58,15.10
2007,03,11,16,59,13.10
2007,03,11,17,00,15.40
2007,03,11,17,01,15.80
2007,03,11,17,02,12.80
2007,03,11,17,03,10.20
2007,03,11,17,04,14.70
2007,03,11,17,05,11.30
2007,03,11,17,06,13.40
2007,03,11,17,07,16.90
2007,03,11,17,08,16.20
2007,03,11,17,09,16.70
2007,03,11,17,10,14.00
2007,03,11,17,11,16.40
2007,03,11,17,12,14.70
2007,03,11,17,13,14.50
2007,03,11,17,14,9.60
2007,03,11,17,15,11.30
2007,03,11,17,16,14.60
2007,03,11,17,17,16.30
2007,03,11,17,18,10.10
2007,03,11,17,19,16.30
2007,03,11,17,20,22.10
2007,03,11,17,21,13.60
2007,03,11,17,22,11.50
2007,03,11,17,23,18.60
2007,03,11,17,24,16.80
2007,03,11,17,25,11.60
2007,03,11,17,26,15.90
2007,03,11,17,27,23.30
2007,03,11,17,28,15.60
2007,03,11,17,29,21.10
2007,03,11,17,30,15.40
2007,03,11,17,31,19.00
2007,03,11,17,32,14.60
2007,03,11,17,33,21.00
2007,03,11,17,34,19.10
2007,03,11,17,35,16.40
2007,03,11,17,36,15.30
2007,03,11,17,37,19.40
2007,03,11,17,38,10.90
2007,03,11,17,39,13.10
2007,03,11,17,40,15.40
2007,03,11,17,41,10.30
2007,03,11,17,42,20.00
2007,03,11,17,43,15.70
2007,03,11,17,44,16.30
2007,03,11,17,45,17.90
2007,03,11,17,46,12.40
2007,03,11,17,47,4.90
2007,03,11,17,48,12.30
2007,03,11,17,49,18.70
2007,03,11,17,50,10.50
2007,03,11,17,51,22.80
2007,03,11,17,52,23.10
2007,03,11,17,53,10.50
2007,03,11,17,54,11.50
2007,03,11,17,55,9.90
2007,03,11,17,56,17.90
2007,03,11,17,57,15.80
2007,03,11,17,58,9.30
2007,03,11,17,59,18.00
2007,03,11,18,00,22.60
2007,03,11,18,01,17.00
2007,03,11,18,02,14.50
2007,03,11,18,03,6.40
2007,03,11,18,04,16.90
2007,03,11,18,05,14.10
2007,03,11,18,06,13.90
2007,03,11,18,07,13.40
2007,03,11,18,08,13.10
2007,03,11,18,09,8.60
2007,03,11,18,10,9.50
2007,03,11,18,11,6.70
2007,03,11,18,12,11.50
2007,03,11,18,13,11.40
2007,03,11,18,14,14.30
2007,03,11,18,15,15.40
2007,03,11,18,16,6.40
2007,03,11,18,17,12.70
2007,03,11,18,18,14.40
2007,03,11,18,19,11.80
2007,03,11,18,20,9.10
2007,03,11,18,21,14.50
2007,03,11,18,22,11.40
2007,03,11,18,23,10.00
2007,03,11,18,24,3.60
2007,03,11,18,25,5.20
2007,03,11,18,26,11.00
2007,03,11,18,27,10.10
2007,03,11,18,28,15.10
2007,03,11,18,29,20.70
2007,03,11,18,30,17.10
2007,03,11,18,31,5.70
2007,03,11,18,32,7.90
2007,03,11,18,33,8.80
2007,03,11,18,34,8.50
2007,03,11,18,35,6.40
2007,03,11,18,36,9.80
2007,03,11,18,37,10.10
2007,03,11,18,38,11.70
2007,03,11,18,39,14.30
2007,03,11,18,40,14.20
2007,03,11,18,41,20.20
2007,03,11,18,42,10.50
2007,03,11,18,43,14.80
2007,03,11,18,44,11.00
2007,03,11,18,45,11.80
2007,03,11,18,46,10.00
2007,03,11,18,47,12.20
2007,03,11,18,48,15.50
2007,03,11,18,49,12.80
2007,03,11,18,50,13.90
2007,03,11,18,51,11.40
2007,03,11,18,52,16.90
2007,03,11,18,53,10.30
2007,03,11,18,54,9.90
2007,03,11,18,55,19.20
2007,03,11,18,56,10.40
2007,03,11,18,57,5.20
2007,03,11,18,58,13.00